TimeEDT,TemperatureF,Dew PointF,Humidity,Sea Level PressureIn,VisibilityMPH,Wind Direction,Wind SpeedMPH,Gust SpeedMPH,PrecipitationIn,Events,Conditions,WindDirDegrees,DateUTC
12:12 AM,39.2,29.8,69,30.30,10.0,Calm,Calm,-,N/A,,Mostly Cloudy,0,2012-10-28 04:12:00
12:52 AM,42.3,31.1,65,30.29,10.0,Calm,Calm,-,N/A,,Clear,0,2012-10-28 04:52:00
1:12 AM,42.8,31.1,63,30.31,10.0,East,3.5,-,N/A,,Mostly Cloudy,90,2012-10-28 05:12:00
1:33 AM,42.3,32.0,67,30.30,10.0,Calm,Calm,-,N/A,,Overcast,0,2012-10-28 05:33:00
1:53 AM,41.9,32.0,68,30.30,10.0,Calm,Calm,-,N/A,,Overcast,0,2012-10-28 05:53:00
2:15 AM,42.8,31.1,63,30.30,10.0,Calm,Calm,-,N/A,,Overcast,0,2012-10-28 06:15:00
2:35 AM,43.2,30.4,61,30.31,10.0,NNE,4.6,-,N/A,,Mostly Cloudy,30,2012-10-28 06:35:00
2:55 AM,44.1,29.3,56,30.31,10.0,NE,5.8,-,N/A,,Overcast,50,2012-10-28 06:55:00
3:11 AM,44.2,28.9,55,30.31,10.0,NNE,5.8,-,N/A,,Overcast,20,2012-10-28 07:11:00
3:31 AM,44.1,28.0,53,30.31,10.0,NNE,5.8,-,N/A,,Scattered Clouds,30,2012-10-28 07:31:00
3:51 AM,43.9,29.3,57,30.31,10.0,NNE,6.9,-,N/A,,Mostly Cloudy,30,2012-10-28 07:51:00
4:11 AM,43.7,29.3,57,30.31,10.0,NNE,5.8,-,N/A,,Overcast,30,2012-10-28 08:11:00
4:31 AM,43.9,29.1,56,30.31,10.0,NNE,5.8,-,N/A,,Overcast,30,2012-10-28 08:31:00
4:52 AM,43.9,27.3,52,30.31,10.0,North,5.8,-,N/A,,Overcast,10,2012-10-28 08:52:00
5:12 AM,43.7,26.4,51,30.31,10.0,NNE,4.6,-,N/A,,Mostly Cloudy,30,2012-10-28 09:12:00
5:32 AM,43.7,26.6,51,30.32,10.0,Calm,Calm,-,N/A,,Mostly Cloudy,0,2012-10-28 09:32:00
5:52 AM,43.9,26.4,50,30.32,10.0,NE,4.6,-,N/A,,Overcast,40,2012-10-28 09:52:00
6:12 AM,44.1,26.4,50,30.32,10.0,NE,8.1,-,N/A,,Overcast,40,2012-10-28 10:12:00
6:33 AM,43.3,26.8,52,30.33,10.0,ESE,3.5,-,N/A,,Overcast,110,2012-10-28 10:33:00
6:53 AM,43.0,26.6,52,30.33,10.0,ENE,4.6,-,N/A,,Overcast,70,2012-10-28 10:53:00
7:13 AM,43.0,26.4,52,30.33,10.0,ENE,3.5,-,N/A,,Overcast,60,2012-10-28 11:13:00
7:33 AM,43.2,26.4,52,30.33,10.0,ENE,6.9,-,N/A,,Overcast,70,2012-10-28 11:33:00
7:53 AM,43.7,26.2,50,30.33,10.0,NE,3.5,-,N/A,,Overcast,40,2012-10-28 11:53:00
8:14 AM,43.7,26.6,51,30.33,10.0,NE,5.8,-,N/A,,Overcast,50,2012-10-28 12:14:00
8:34 AM,43.7,27.1,52,30.33,10.0,ENE,5.8,-,N/A,,Overcast,60,2012-10-28 12:34:00
8:54 AM,44.4,27.3,51,30.33,10.0,NE,5.8,-,N/A,,Overcast,50,2012-10-28 12:54:00
9:14 AM,44.4,27.5,52,30.33,10.0,ENE,5.8,-,N/A,,Overcast,60,2012-10-28 13:14:00
9:34 AM,46.0,28.0,50,30.34,10.0,ENE,6.9,-,N/A,,Overcast,60,2012-10-28 13:34:00
9:54 AM,45.7,26.6,47,30.34,10.0,East,5.8,16.1,N/A,,Overcast,80,2012-10-28 13:54:00
10:15 AM,45.1,26.4,48,30.34,10.0,North,5.8,-,N/A,,Overcast,10,2012-10-28 14:15:00
10:35 AM,45.3,26.2,47,30.34,10.0,NE,4.6,16.1,N/A,,Overcast,50,2012-10-28 14:35:00
10:55 AM,45.5,25.9,46,30.34,10.0,NNE,4.6,-,N/A,,Overcast,30,2012-10-28 14:55:00
11:15 AM,46.0,26.2,46,30.33,10.0,NE,4.6,-,N/A,,Overcast,40,2012-10-28 15:15:00
11:31 AM,46.6,25.3,43,30.33,10.0,NE,8.1,-,N/A,,Mostly Cloudy,40,2012-10-28 15:31:00
11:51 AM,46.9,25.7,44,30.33,10.0,NNE,8.1,-,N/A,,Scattered Clouds,30,2012-10-28 15:51:00
12:11 PM,46.9,25.2,43,30.33,10.0,NNE,8.1,17.3,N/A,,Scattered Clouds,30,2012-10-28 16:11:00
12:31 PM,48.0,26.1,42,30.33,10.0,NE,12.7,18.4,N/A,,Scattered Clouds,50,2012-10-28 16:31:00
1:12 PM,48.4,26.6,43,30.31,10.0,NNE,4.6,-,N/A,,Scattered Clouds,30,2012-10-28 17:12:00
1:32 PM,48.4,26.6,43,30.30,10.0,NE,10.4,20.7,N/A,,Scattered Clouds,50,2012-10-28 17:32:00
1:52 PM,48.0,27.0,44,30.30,10.0,NNE,9.2,17.3,N/A,,Scattered Clouds,20,2012-10-28 17:52:00
2:12 PM,49.6,27.1,42,30.29,10.0,NNE,6.9,-,N/A,,Scattered Clouds,20,2012-10-28 18:12:00
2:32 PM,49.1,27.5,43,30.29,10.0,ENE,9.2,19.6,N/A,,Scattered Clouds,60,2012-10-28 18:32:00
2:53 PM,50.2,28.0,42,30.29,10.0,NNE,9.2,-,N/A,,Mostly Cloudy,30,2012-10-28 18:53:00
3:13 PM,49.1,27.5,43,30.29,10.0,North,9.2,-,N/A,,Mostly Cloudy,10,2012-10-28 19:13:00
3:33 PM,49.1,27.5,43,30.28,10.0,North,5.8,16.1,N/A,,Scattered Clouds,10,2012-10-28 19:33:00
3:53 PM,49.6,27.7,43,30.28,10.0,North,8.1,-,N/A,,Scattered Clouds,360,2012-10-28 19:53:00
4:14 PM,48.4,27.3,44,30.28,10.0,North,8.1,16.1,N/A,,Scattered Clouds,360,2012-10-28 20:14:00
4:34 PM,48.6,27.7,44,30.29,10.0,NNE,10.4,18.4,N/A,,Scattered Clouds,20,2012-10-28 20:34:00
4:54 PM,48.4,27.3,44,30.28,10.0,North,10.4,16.1,N/A,,Scattered Clouds,360,2012-10-28 20:54:00
5:14 PM,46.9,27.3,46,30.28,10.0,North,8.1,-,N/A,,Scattered Clouds,360,2012-10-28 21:14:00
5:34 PM,47.3,28.0,47,30.28,10.0,North,6.9,-,N/A,,Clear,10,2012-10-28 21:34:00
5:55 PM,46.4,28.6,50,30.29,10.0,NNE,6.9,-,N/A,,Clear,30,2012-10-28 21:55:00
6:15 PM,45.5,28.9,52,30.28,10.0,North,4.6,-,N/A,,Clear,10,2012-10-28 22:15:00
6:35 PM,45.0,29.8,55,30.28,10.0,Calm,Calm,-,N/A,,Clear,0,2012-10-28 22:35:00
6:55 PM,45.0,29.5,55,30.29,10.0,North,8.1,-,N/A,,Clear,10,2012-10-28 22:55:00
7:11 PM,45.1,28.4,52,30.28,10.0,NNE,5.8,-,N/A,,Clear,20,2012-10-28 23:11:00
7:31 PM,45.1,28.6,52,30.29,10.0,North,3.5,-,N/A,,Clear,360,2012-10-28 23:31:00
7:51 PM,45.1,29.3,54,30.29,10.0,NNE,4.6,-,N/A,,Scattered Clouds,30,2012-10-28 23:51:00
8:11 PM,45.5,29.1,53,30.29,10.0,NNE,5.8,-,N/A,,Scattered Clouds,20,2012-10-29 00:11:00
8:31 PM,45.9,28.9,52,30.29,10.0,North,3.5,-,N/A,,Scattered Clouds,350,2012-10-29 00:31:00
8:52 PM,46.4,29.3,51,30.29,10.0,Calm,Calm,-,N/A,,Scattered Clouds,0,2012-10-29 00:52:00
9:12 PM,46.8,30.0,52,30.28,10.0,NE,3.5,-,N/A,,Overcast,40,2012-10-29 01:12:00
9:32 PM,46.6,30.0,53,30.28,10.0,ENE,3.5,-,N/A,,Overcast,70,2012-10-29 01:32:00
9:52 PM,46.4,29.8,53,30.28,10.0,NE,4.6,-,N/A,,Mostly Cloudy,50,2012-10-29 01:52:00
10:13 PM,46.4,30.0,53,30.29,10.0,NE,4.6,-,N/A,,Scattered Clouds,40,2012-10-29 02:13:00
10:33 PM,46.0,30.2,54,30.29,10.0,NNE,3.5,-,N/A,,Scattered Clouds,20,2012-10-29 02:33:00
10:53 PM,46.2,29.8,53,30.29,10.0,NNE,6.9,17.3,N/A,,Scattered Clouds,30,2012-10-29 02:53:00
11:13 PM,46.2,30.7,55,30.29,10.0,NNE,5.8,-,N/A,,Scattered Clouds,20,2012-10-29 03:13:00
11:33 PM,45.9,31.1,56,30.29,10.0,North,10.4,-,N/A,,Mostly Cloudy,10,2012-10-29 03:33:00
11:54 PM,45.5,31.1,57,30.29,10.0,North,8.1,-,N/A,,Scattered Clouds,10,2012-10-29 03:54:00